Flag for China Weather past 2 weeks in Shenzhen, Guangdong, China

Now
64 °F

Clear.


Feels Like: 64 °F
Forecast: 53 / 71 °F
Wind: 3 mph from South

Location: Shenzhen Airport

Current Time: Jan 29, 2015 at 9:09:53 PM

Latest Report: Jan 29, 2015 at 8:00 PM


Visibility: 10 mi

Pressure: 30.09 "Hg

Humidity: 83%

Dew point: 59 °F

Location of ShenzhenLocation

Historic Weather in Shenzhen — Graph

°F

Shenzhen temperature yesterday

Maximum temperature yesterday: 70 °F (at 12:00 PM)
Minimum temperature yesterday: 61 °F (at 5:00 AM)
Average temperature yesterday: 64 °F

Past Weeks' High & Low Weather Summary

 TemperatureHumidityPressure
High72 °F (Jan 22, 12:00 PM)94% (Jan 26, 4:00 AM)30.33 "Hg (Jan 26, 4:00 AM)
Low48 °F (Jan 15, 7:00 AM)22% (Jan 22, 1:00 PM)29.98 "Hg (Jan 27, 4:00 PM)
Average62 °F65%30.13 "Hg
* Reported Jan 14 7:00 PM — Jan 29 7:00 PM, Shenzhen, Weather by CustomWeather, © 2014

Note: Actual official high and low records may vary slightly from our data, if they occured in-between our weather recording intervals... More about our weather records

Advertising

Shenzhen weather history for previous 24 hours

 ConditionsComfort  
Time TempWeatherWind HumidityBarometerVisibility
7:00 PM
Jan 29
64 °FClear.3 mph83%30.07 "Hg10 mi
6:00 PM64 °FSunny.6 mph83%30.07 "Hg10 mi
5:00 PM66 °FSunny.6 mph73%30.07 "Hg10 mi
4:00 PM68 °FClear.6 mph64%30.07 "Hg5 mi
3:00 PM68 °FPassing clouds.3 mph60%30.07 "HgN/A
2:00 PM68 °FSunny.6 mph60%30.07 "Hg10 mi
1:00 PM68 °FSunny.8 mph64%30.09 "Hg10 mi
12:00 PM66 °FSunny.8 mph64%30.12 "Hg10 mi
11:00 AM66 °FClear.6 mph64%30.12 "Hg5 mi
10:00 AM66 °FClear.1 mph60%30.15 "Hg4 mi
9:00 AM63 °FClear.6 mph68%30.12 "Hg4 mi
8:00 AM59 °FPassing clouds.3 mph77%30.12 "Hg5 mi
7:00 AM59 °FPassing clouds.1 mph72%30.09 "Hg5 mi
6:00 AM59 °FPassing clouds.3 mph72%30.09 "HgN/A
5:00 AM61 °FPassing clouds.6 mph68%30.07 "HgN/A
4:00 AM61 °FPassing clouds.8 mph72%30.07 "HgN/A
3:00 AM61 °FPassing clouds.8 mph72%30.07 "HgN/A
2:00 AM61 °FPassing clouds.10 mph72%30.07 "HgN/A
1:00 AM61 °FPassing clouds.13 mph72%30.09 "HgN/A
12:00 AM61 °FPassing clouds.13 mph72%30.09 "HgN/A
11:00 PM
Jan 28
61 °FPassing clouds.13 mph72%30.09 "HgN/A
10:00 PM61 °FPassing clouds.15 mph72%30.09 "HgN/A
9:00 PM61 °FPassing clouds.17 mph72%30.09 "HgN/A
Weather by CustomWeather, © 2014

See weather overviewHow to use our weather pages